Location: La B�doule
(43.2468°N, 5.5934°E)
Time: 20:41:30
(UTC+00:00)

IRIDIUM 114 - Pass Details

Date: 07 June 2020
Orbit: 776 x 779 km, 86.4° (Epoch: 13 July)

Event Time Altitude Azimuth Distance (km) Brightness Sun altitude
Exits shadow 02:16:45 20° 201° (SSW) 1,720 5.5 -14.4°
Maximum altitude 02:20:16 59° 275° (W) 897 4.5 -14.0°
Drops below altitude 10° 02:25:26 10° 356° (N) 2,342 7.5 -13.4°
Sets 02:27:51 0° 360° (N) 3,274 8.4 -13.1°
